ZSRMH FAPE-FAPE

Flight info

Callsign ZSRMH
Flight time 0h 33m
Altitude 1500
Route COASTWISE VIA SEAVIEW AND MAITLAND TO GAMTOOS AND RETURN
Aircraft R44/L-VGD/C

Departure

Time 2026-04-25 09:11
Airport Chief Dawid Stuurman International Airport (FAPE)

Arrival

Time 2026-04-25 09:44
Airport Chief Dawid Stuurman International Airport (FAPE)
Time Latitude Longitude Altitude Speed Heading
2026-04-25 08:59 -33.98581 25.60899 206 ft 0 kts 332°
2026-04-25 09:10 -33.98582 25.60897 219 ft 2 kts 307°
2026-04-25 09:10 -33.98689 25.60673 336 ft 59 kts 258°
2026-04-25 09:10 -33.98946 25.60099 471 ft 92 kts 248°
2026-04-25 09:11 -33.99683 25.58669 833 ft 100 kts 252°
2026-04-25 09:11 -34.00006 25.57963 881 ft 95 kts 258°
2026-04-25 09:11 -34.00193 25.57217 891 ft 93 kts 266°
2026-04-25 09:12 -34.00323 25.56456 861 ft 89 kts 264°
2026-04-25 09:12 -34.00425 25.55713 841 ft 92 kts 268°
2026-04-25 09:12 -34.00531 25.54976 951 ft 85 kts 268°
2026-04-25 09:12 -34.00586 25.54246 1007 ft 91 kts 270°
2026-04-25 09:13 -34.00611 25.53475 1024 ft 91 kts 274°
2026-04-25 09:13 -34.00622 25.52741 1008 ft 86 kts 273°
2026-04-25 09:13 -34.00697 25.52006 922 ft 90 kts 268°
2026-04-25 09:13 -34.00789 25.51288 882 ft 85 kts 268°
2026-04-25 09:14 -34.00833 25.50582 896 ft 85 kts 269°
2026-04-25 09:14 -34.00926 25.49841 865 ft 89 kts 272°
2026-04-25 09:14 -34.01048 25.49122 832 ft 88 kts 265°
2026-04-25 09:14 -34.01153 25.48442 892 ft 78 kts 268°
2026-04-25 09:15 -34.01249 25.47724 771 ft 90 kts 268°
2026-04-25 09:15 -34.01358 25.46987 808 ft 92 kts 266°
2026-04-25 09:15 -34.01385 25.46216 831 ft 89 kts 283°
2026-04-25 09:15 -34.01390 25.45461 800 ft 95 kts 271°
2026-04-25 09:16 -34.01444 25.44680 759 ft 93 kts 272°
2026-04-25 09:16 -34.01510 25.43883 698 ft 98 kts 269°
2026-04-25 09:16 -34.01509 25.43081 809 ft 88 kts 263°
2026-04-25 09:16 -34.01644 25.42374 816 ft 90 kts 274°
2026-04-25 09:17 -34.01868 25.40918 804 ft 97 kts 266°
2026-04-25 09:17 -34.01913 25.40151 892 ft 90 kts 269°
2026-04-25 09:17 -34.01981 25.39343 741 ft 102 kts 272°
2026-04-25 09:18 -34.01980 25.38540 740 ft 86 kts 280°
2026-04-25 09:18 -34.01928 25.37774 686 ft 95 kts 283°
2026-04-25 09:18 -34.01750 25.36982 626 ft 103 kts 292°
2026-04-25 09:18 -34.01485 25.36190 676 ft 95 kts 299°
2026-04-25 09:19 -34.01226 25.35435 657 ft 99 kts 297°
2026-04-25 09:19 -34.00989 25.34674 639 ft 94 kts 296°
2026-04-25 09:19 -34.00789 25.33917 658 ft 99 kts 291°
2026-04-25 09:19 -34.00538 25.33109 580 ft 106 kts 296°
2026-04-25 09:20 -34.00229 25.32386 618 ft 90 kts 307°
2026-04-25 09:20 -33.99982 25.31711 733 ft 88 kts 296°
2026-04-25 09:20 -33.99744 25.31024 762 ft 90 kts 295°
2026-04-25 09:20 -33.99502 25.30283 617 ft 100 kts 305°
2026-04-25 09:21 -33.99152 25.29600 544 ft 92 kts 295°
2026-04-25 09:21 -33.98999 25.28898 594 ft 80 kts 294°
2026-04-25 09:21 -33.98854 25.28294 714 ft 76 kts 293°
2026-04-25 09:21 -33.98702 25.27665 761 ft 77 kts 292°
2026-04-25 09:22 -33.98509 25.27046 802 ft 83 kts 294°
2026-04-25 09:22 -33.98289 25.26399 852 ft 83 kts 294°
2026-04-25 09:22 -33.98037 25.25750 859 ft 91 kts 297°
2026-04-25 09:22 -33.97803 25.25008 782 ft 96 kts 288°
2026-04-25 09:23 -33.97694 25.24234 779 ft 92 kts 286°
2026-04-25 09:23 -33.97590 25.23475 746 ft 89 kts 284°
2026-04-25 09:23 -33.97403 25.22758 635 ft 92 kts 302°
2026-04-25 09:23 -33.97166 25.22062 561 ft 83 kts 288°
2026-04-25 09:24 -33.97080 25.21405 627 ft 75 kts 286°
2026-04-25 09:24 -33.96997 25.20796 738 ft 76 kts 293°
2026-04-25 09:24 -33.96860 25.20143 713 ft 83 kts 280°
2026-04-25 09:24 -33.96738 25.19446 747 ft 86 kts 278°
2026-04-25 09:25 -33.96720 25.18727 850 ft 83 kts 274°
2026-04-25 09:25 -33.96735 25.18091 1009 ft 76 kts 282°
2026-04-25 09:25 -33.96616 25.17389 821 ft 97 kts 290°
2026-04-25 09:25 -33.96555 25.16628 910 ft 82 kts 279°
2026-04-25 09:26 -33.96570 25.16014 1033 ft 72 kts 276°
2026-04-25 09:26 -33.96518 25.15325 835 ft 87 kts 285°
2026-04-25 09:26 -33.96399 25.14562 641 ft 94 kts 281°
2026-04-25 09:26 -33.96318 25.13817 600 ft 81 kts 279°
2026-04-25 09:27 -33.96268 25.13131 606 ft 86 kts 284°
2026-04-25 09:27 -33.96246 25.12380 626 ft 93 kts 272°
2026-04-25 09:27 -33.96320 25.11589 631 ft 94 kts 273°
2026-04-25 09:27 -33.96407 25.10836 699 ft 88 kts 273°
2026-04-25 09:28 -33.96257 25.10241 586 ft 72 kts 349°
2026-04-25 09:28 -33.95976 25.10804 492 ft 92 kts 78°
2026-04-25 09:28 -33.96078 25.11593 630 ft 97 kts 89°
2026-04-25 09:28 -33.96177 25.12480 628 ft 112 kts 91°
2026-04-25 09:29 -33.96198 25.13342 748 ft 104 kts 89°
2026-04-25 09:29 -33.96218 25.14263 678 ft 111 kts 89°
2026-04-25 09:29 -33.96222 25.15215 639 ft 122 kts 92°
2026-04-25 09:29 -33.96354 25.16264 542 ft 124 kts 95°
2026-04-25 09:30 -33.96485 25.17247 643 ft 114 kts 92°
2026-04-25 09:30 -33.96573 25.18203 667 ft 112 kts 91°
2026-04-25 09:30 -33.96626 25.19168 668 ft 110 kts 90°
2026-04-25 09:30 -33.96684 25.20127 655 ft 122 kts 95°
2026-04-25 09:31 -33.96895 25.21166 564 ft 128 kts 99°
2026-04-25 09:31 -33.97034 25.21818 596 ft 115 kts 102°
2026-04-25 09:31 -33.97197 25.23082 588 ft 109 kts 96°
2026-04-25 09:31 -33.97389 25.23915 692 ft 103 kts 101°
2026-04-25 09:32 -33.97652 25.24770 760 ft 113 kts 105°
2026-04-25 09:32 -33.97913 25.25670 797 ft 111 kts 108°
2026-04-25 09:32 -33.98153 25.26584 760 ft 118 kts 105°
2026-04-25 09:32 -33.98451 25.27533 685 ft 117 kts 102°
2026-04-25 09:33 -33.98680 25.28484 600 ft 122 kts 99°
2026-04-25 09:33 -33.98957 25.29383 711 ft 109 kts 110°
2026-04-25 09:33 -33.99191 25.30138 879 ft 93 kts 109°
2026-04-25 09:33 -33.99486 25.30828 819 ft 92 kts 112°
2026-04-25 09:34 -33.99690 25.31546 823 ft 97 kts 116°
2026-04-25 09:34 -34.00041 25.32231 708 ft 93 kts 117°
2026-04-25 09:34 -34.00366 25.32856 643 ft 89 kts 115°
2026-04-25 09:34 -34.00697 25.33523 628 ft 92 kts 110°
2026-04-25 09:35 -34.01018 25.34248 634 ft 104 kts 111°
2026-04-25 09:35 -34.01355 25.35007 642 ft 97 kts 113°
2026-04-25 09:35 -34.01548 25.35741 665 ft 92 kts 107°
2026-04-25 09:35 -34.01721 25.36466 755 ft 89 kts 99°
2026-04-25 09:36 -34.01848 25.37175 752 ft 82 kts 97°
2026-04-25 09:36 -34.02001 25.37799 825 ft 77 kts 105°
2026-04-25 09:36 -34.02068 25.38455 782 ft 89 kts 91°
2026-04-25 09:36 -34.02204 25.39160 746 ft 73 kts 99°
2026-04-25 09:37 -34.02308 25.39692 829 ft 72 kts 83°
2026-04-25 09:37 -34.02287 25.40337 821 ft 81 kts 86°
2026-04-25 09:37 -34.02299 25.40995 833 ft 84 kts 82°
2026-04-25 09:37 -34.02240 25.41737 723 ft 89 kts 80°
2026-04-25 09:38 -34.02284 25.42509 701 ft 95 kts 91°
2026-04-25 09:38 -34.02324 25.43363 680 ft 110 kts 83°
2026-04-25 09:38 -34.02359 25.44309 757 ft 115 kts 91°
2026-04-25 09:38 -34.02394 25.45264 843 ft 108 kts 86°
2026-04-25 09:39 -34.02465 25.46179 778 ft 113 kts 92°
2026-04-25 09:39 -34.02560 25.47095 763 ft 107 kts 93°
2026-04-25 09:39 -34.02529 25.47984 831 ft 105 kts 83°
2026-04-25 09:40 -34.02614 25.49427 831 ft 95 kts 76°
2026-04-25 09:40 -34.02470 25.50220 798 ft 95 kts 69°
2026-04-25 09:40 -34.02311 25.50948 862 ft 89 kts 71°
2026-04-25 09:40 -34.02221 25.51941 871 ft 86 kts 75°
2026-04-25 09:41 -34.02195 25.52415 871 ft 82 kts 75°
2026-04-25 09:41 -34.02136 25.53076 878 ft 78 kts 75°
2026-04-25 09:41 -34.02039 25.53710 912 ft 75 kts 62°
2026-04-25 09:41 -34.01907 25.54332 886 ft 73 kts 65°
2026-04-25 09:42 -34.01811 25.54829 870 ft 61 kts 56°
2026-04-25 09:42 -34.01677 25.55348 864 ft 68 kts 62°
2026-04-25 09:42 -34.01555 25.55954 948 ft 70 kts 56°
2026-04-25 09:42 -34.01266 25.56552 899 ft 83 kts 47°
2026-04-25 09:43 -34.00897 25.57124 804 ft 89 kts 38°
2026-04-25 09:43 -34.00463 25.57683 692 ft 83 kts 42°
2026-04-25 09:43 -34.00154 25.58231 658 ft 76 kts 49°
2026-04-25 09:43 -33.99879 25.58747 545 ft 76 kts 45°
2026-04-25 09:44 -33.99582 25.59268 477 ft 74 kts 43°
2026-04-25 09:44 -33.99300 25.59776 390 ft 70 kts 49°
2026-04-25 09:44 -33.99044 25.60212 339 ft 57 kts 46°
2026-04-25 09:44 -33.98843 25.60601 325 ft 49 kts 49°
2026-04-25 09:45 -33.98667 25.60801 294 ft 18 kts 20°
2026-04-25 09:45 -33.98626 25.60852 230 ft 1 kts 27°
2026-04-25 09:45 -33.98620 25.60849 207 ft 0 kts 27°